Current weather by "City, St" or "zip code"  
 

Current Conditions: Charlotte, Fitch H Beach Airport, MI

Overcast


46.0 F

Last Updated on Oct 23 2020, 9:55 pm EDT
Humidity: 78%
Wind Speed: NW 10.4 G 19.6 mph
Barometer 30.04 in
Dewpoint: 39.2 F
Visibility: 10.00 mi
Precip: --
Heat Index: NA
Wind Chill: 41 F
Current conditions at:

Charlotte, Fitch H Beach Airport, MI (KFPK)

Lat: 42.57444 Lon: 84.81139

Local Radar Image active severe weather and emergency alerts image image weather storm and storm spotter reports image weather observation monitoring service image
Local
Radar
Active
Alerts
Storm Reports Obs
Monitoring

Sign-up For Email & Text Message Weather Alert Notification Services



Advertise Here

Observation History for Charlotte, Fitch H Beach Airport, MI


Time Wind
(mph)
Vis
(mi)
Weather Precip (in) Temperature (F) Relative
Humidity
Wind
Chill
(F)
Heat
Index
(F)
Pressure
Air Dwpt altimeter
(in)
sea level
(mb)
Rmks
9:55 pm EDT NW 10.4 G 19.6 10.00 Overcast -- 46.0 39.2 78% 41 NA 30.04 M
8:55 pm EDT NW 9.2 G 16.1 10.00 Overcast -- 46.0 40.8 81% 41 NA 30.01 M
7:55 pm EDT NW 10.4 G 24.2 10.00 Overcast -- 48.0 41.2 78% 43 NA 29.98 M
6:55 pm EDT NW 11.5 G 18.4 10.00 Overcast -- 50.0 44.8 81% 46 NA 29.94 M
5:55 pm EDT W 17.3 G 25.3 10.00 Mostly Cloudy -- 54.0 47.7 80% 49 NA 29.88 M
4:55 pm EDT W 13.8 G 21.9 7.00 Overcast -- 57.0 52.0 82% 54 NA 29.86 M
3:55 pm EDT SW 17.3 G 23.0 10.00 Overcast -- 67.0 60.1 78% NA NA 29.79 M
2:55 pm EDT SW 10.4 10.00 Partly Cloudy -- 66.0 60.8 83% NA NA 29.80 M
1:55 pm EDT SW 12.7 G 25.3 4.00 Rain 00.11 66.0 59.7 80% NA NA 29.82 M
12:55 pm EDT SW 15.0 G 20.7 10.00 Overcast -- 71.0 62.8 75% NA NA 29.82 M
11:55 am EDT SW 11.5 G 17.3 10.00 Overcast -- 70.0 62.1 77% NA NA 29.83 M
10:55 am EDT SW 12.7 G 19.6 10.00 Overcast -- 69.0 61.7 77% NA NA 29.84 M
9:55 am EDT S 12.7 G 18.4 10.00 Partly Cloudy -- 69.0 61.0 76% NA NA 29.85 M
8:55 am EDT S 11.5 10.00 Mostly Cloudy -- 66.0 59.9 80% NA NA 29.86 M
7:55 am EDT S 10.4 10.00 Partly Cloudy -- 66.0 59.4 79% NA NA 29.87 M
6:55 am EDT S 12.7 G 19.6 10.00 Partly Cloudy -- 68.0 59.9 75% NA NA 29.87 M
5:55 am EDT S 12.7 G 18.4 10.00 Overcast -- 69.0 59.9 74% NA NA 29.88 M
4:55 am EDT S 11.5 G 18.4 10.00 Fair -- 66.0 59.0 77% NA NA 29.88 M
3:55 am EDT S 12.7 10.00 Fair -- 65.0 59.2 80% NA NA 29.89 M
2:55 am EDT S 8.1 10.00 Fair -- 65.0 59.0 81% NA NA 29.90 M
1:55 am EDT S 5.8 10.00 Fair -- 64.0 58.3 83% NA NA 29.91 M
12:55 am EDT S 8.1 10.00 Fair -- 64.0 59.2 83% NA NA 29.92 M
11:55 pm EDT S 9.2 10.00 Fair -- 64.0 59.4 84% NA NA 29.92 M
10:55 pm EDT S 9.2 7.00 Fair -- 63.0 59.0 88% 62 NA 29.92 M

Regional Weather Observation


Charlotte, Fitch H Beach Airport, MI (KFPK)

Overcast
46.0 F

Capital Region International Airport, MI (KLAN)

Overcast
44.0 F

Grand Rapids, Gerald R. Ford International Airport, MI (KGRR)

Overcast
42.0 F

Battle Creek Executive Airport, MI (KBTL)

Overcast
44.0 F

Brooks Field Airport, MI (KRMY)

Overcast
44.0 F

Mason, Mason Jewett Field Airport, MI (KTEW)

Fog/Mist
44.0 F